| time (UTC) | temp F | wind direction | speed MPH | gust MPH | rain 1hr in | rain 24hr in | rain mn in | humidity % | barometer mb |
| 20260507075035 | 50 | 0 | 0.0 | 0.0 | 0.00 | 0.07 | 0.00 | 82 | 1015.9 |
| 20260507074038 | 50 | 0 | 0.0 | 0.0 | 0.00 | 0.08 | 0.00 | 84 | 1015.9 |
| 20260507073038 | 50 | 0 | 0.0 | 0.0 | 0.00 | 0.09 | 0.00 | 83 | 1015.8 |
| 20260507072036 | 50 | 0 | 0.0 | 0.0 | 0.00 | 0.09 | 0.00 | 85 | 1015.7 |
| 20260507070037 | 49 | 0 | 0.0 | 0.0 | 0.00 | 0.09 | 0.00 | 89 | 1015.7 |
| 20260507065034 | 48 | 0 | 0.0 | 0.0 | 0.00 | 0.10 | 0.00 | 90 | 1015.8 |
| 20260507064037 | 48 | 0 | 0.0 | 0.0 | 0.00 | 0.11 | 0.00 | 90 | 1015.6 |
| 20260507063034 | 48 | 0 | 0.0 | 0.0 | 0.00 | 0.11 | 0.00 | 91 | 1015.5 |
| 20260507062041 | 48 | 0 | 0.0 | 0.0 | 0.00 | 0.12 | 0.00 | 91 | 1015.5 |
| 20260507061036 | 48 | 0 | 0.0 | 0.0 | 0.00 | 0.12 | 0.00 | 92 | 1015.4 |
| 20260507060037 | 47 | 0 | 0.0 | 0.0 | 0.00 | 0.13 | 0.00 | 91 | 1015.3 |
| 20260507055022 | 47 | 0 | 0.0 | 0.0 | 0.00 | 0.13 | 0.00 | 92 | 1015.3 |
| 20260507053023 | 47 | 0 | 0.0 | 0.0 | 0.00 | 0.13 | 0.00 | 92 | 1015.1 |
| 20260507052036 | 47 | 0 | 0.0 | 0.0 | 0.00 | 0.14 | 0.00 | 91 | 1015.0 |
| 20260507051026 | 47 | 0 | 0.0 | 0.0 | 0.00 | 0.14 | 0.00 | 91 | 1014.9 |
| 20260507050034 | 46 | 0 | 0.0 | 0.0 | 0.00 | 0.16 | 0.00 | 90 | 1014.8 |
| 20260507045036 | 46 | 0 | 0.0 | 0.0 | 0.00 | 0.17 | 0.00 | 91 | 1014.7 |
| 20260507043036 | 46 | 0 | 0.0 | 0.0 | 0.00 | 0.18 | 0.00 | 90 | 1014.5 |
| 20260507042037 | 46 | 0 | 0.0 | 0.0 | 0.00 | 0.19 | 0.00 | 91 | 1014.4 |
| 20260507040037 | 46 | 0 | 0.0 | 0.0 | 0.00 | 0.20 | 0.00 | 92 | 1014.3 |
| 20260507035025 | 46 | 0 | 0.0 | 0.0 | 0.00 | 0.22 | 0.00 | 93 | 1014.3 |
| 20260507034036 | 46 | 0 | 0.0 | 0.0 | 0.00 | 0.23 | 0.00 | 94 | 1014.3 |
| 20260507033022 | 46 | 0 | 0.0 | 0.0 | 0.00 | 0.24 | 0.00 | 93 | 1014.2 |
| 20260507032026 | 46 | 0 | 0.0 | 0.0 | 0.00 | 0.24 | 0.00 | 92 | 1014.1 |
| 20260507031037 | 46 | 0 | 0.0 | 0.0 | 0.00 | 0.24 | 0.00 | 92 | 1014.1 |
| 20260507030024 | 46 | 0 | 0.0 | 0.0 | 0.00 | 0.24 | 0.00 | 92 | 1014.1 |
| 20260507025025 | 46 | 0 | 0.0 | 0.0 | 0.00 | 0.24 | 0.00 | 91 | 1014.0 |
| 20260507023022 | 46 | 0 | 0.0 | 0.0 | 0.00 | 0.25 | 0.00 | 91 | 1014.0 |
| 20260507022023 | 46 | 0 | 0.0 | 0.0 | 0.00 | 0.26 | 0.00 | 92 | 1013.9 |
| 20260507021035 | 46 | 0 | 0.0 | 0.0 | 0.00 | 0.26 | 0.00 | 92 | 1013.8 |
| 20260507020036 | 46 | 0 | 0.0 | 0.0 | 0.00 | 0.27 | 0.00 | 92 | 1013.7 |
| 20260507015034 | 46 | 0 | 0.0 | 0.0 | 0.00 | 0.27 | 0.00 | 92 | 1013.6 |
| 20260507013028 | 47 | 0 | 0.0 | 0.0 | 0.00 | 0.28 | 0.00 | 91 | 1013.7 |
| 20260507012029 | 47 | 0 | 0.0 | 0.0 | 0.00 | 0.29 | 0.00 | 91 | 1013.7 |
| 20260507011023 | 47 | 0 | 0.0 | 0.0 | 0.00 | 0.30 | 0.00 | 91 | 1013.7 |
| 20260507010038 | 46 | 0 | 0.0 | 0.0 | 0.00 | 0.31 | 0.00 | 95 | 1013.6 |
| 20260507005022 | 46 | 0 | 0.0 | 0.0 | 0.00 | 0.31 | 0.00 | 96 | 1013.6 |
| 20260507004037 | 46 | 0 | 0.0 | 0.0 | 0.00 | 0.33 | 0.00 | 96 | 1013.6 |
| 20260507003036 | 46 | 0 | 0.0 | 0.0 | 0.00 | 0.34 | 0.00 | 97 | 1013.5 |
| 20260507002039 | 47 | 0 | 0.0 | 0.0 | 0.00 | 0.34 | 0.00 | 96 | 1013.5 |
| 20260507001021 | 47 | 0 | 0.0 | 0.0 | 0.00 | 0.35 | 0.00 | 97 | 1013.5 |
| 20260507000048 | 46 | 0 | 0.0 | 0.0 | 0.00 | 0.35 | 0.00 | 97 | 1013.4 |
| 20260506235039 | 47 | 0 | 0.0 | 0.0 | 0.00 | 0.36 | 0.00 | 97 | 1013.4 |
| 20260506234039 | 47 | 0 | 0.0 | 0.0 | 0.00 | 0.37 | 0.00 | 97 | 1013.3 |
| 20260506233038 | 47 | 0 | 0.0 | 0.0 | 0.00 | 0.38 | 0.00 | 97 | 1013.2 |
| 20260506232038 | 47 | 0 | 0.0 | 0.0 | 0.00 | 0.39 | 0.00 | 97 | 1013.2 |
| 20260506231036 | 47 | 0 | 0.0 | 0.0 | 0.00 | 0.40 | 0.00 | 97 | 1013.2 |
| 20260506230039 | 47 | 0 | 0.0 | 0.0 | 0.00 | 0.42 | 0.00 | 97 | 1013.1 |
| 20260506225038 | 47 | 0 | 0.0 | 0.0 | 0.00 | 0.43 | 0.00 | 97 | 1013.1 |
| 20260506224038 | 47 | 0 | 0.0 | 0.0 | 0.00 | 0.43 | 0.00 | 97 | 1012.9 |
| 20260506223036 | 47 | 0 | 0.0 | 0.0 | 0.00 | 0.44 | 0.00 | 96 | 1012.9 |
| 20260506221036 | 47 | 0 | 0.0 | 0.0 | 0.00 | 0.45 | 0.00 | 96 | 1012.7 |
| 20260506220047 | 47 | 0 | 0.0 | 0.0 | 0.00 | 0.46 | 0.00 | 95 | 1012.7 |
| 20260506215038 | 47 | 0 | 0.0 | 0.0 | 0.00 | 0.46 | 0.46 | 95 | 1012.5 |
| 20260506213038 | 47 | 0 | 0.0 | 0.0 | 0.00 | 0.48 | 0.46 | 93 | 1012.4 |
| 20260506212040 | 47 | 0 | 0.0 | 0.0 | 0.00 | 0.49 | 0.46 | 93 | 1012.3 |
| 20260506205039 | 46 | 0 | 0.0 | 0.0 | 0.00 | 0.51 | 0.46 | 91 | 1012.0 |
| 20260506204036 | 46 | 0 | 0.0 | 0.0 | 0.00 | 0.52 | 0.46 | 91 | 1012.0 |
| 20260506203039 | 46 | 0 | 0.0 | 0.0 | 0.00 | 0.53 | 0.46 | 90 | 1011.9 |
| 20260506202038 | 47 | 0 | 0.0 | 0.0 | 0.00 | 0.54 | 0.46 | 89 | 1011.8 |
| 20260506201040 | 47 | 0 | 0.0 | 0.0 | 0.00 | 0.54 | 0.46 | 89 | 1011.8 |
| 20260506200039 | 47 | 0 | 0.0 | 0.0 | 0.00 | 0.56 | 0.46 | 88 | 1011.7 |
| 20260506195037 | 48 | 0 | 0.0 | 0.0 | 0.00 | 0.57 | 0.46 | 87 | 1011.5 |
| 20260506194037 | 48 | 0 | 0.0 | 0.0 | 0.00 | 0.57 | 0.46 | 86 | 1011.5 |
| 20260506193037 | 49 | 0 | 0.0 | 0.0 | 0.00 | 0.58 | 0.46 | 84 | 1011.4 |
| 20260506192036 | 49 | 0 | 0.0 | 0.0 | 0.00 | 0.59 | 0.46 | 84 | 1011.3 |
| 20260506190038 | 50 | 0 | 0.0 | 0.0 | 0.00 | 0.60 | 0.46 | 84 | 1011.0 |
| 20260506185038 | 51 | 0 | 0.0 | 0.0 | 0.00 | 0.61 | 0.46 | 83 | 1010.8 |
| 20260506184036 | 51 | 0 | 0.0 | 0.0 | 0.00 | 0.61 | 0.46 | 82 | 1010.8 |
| 20260506183039 | 51 | 0 | 0.0 | 0.0 | 0.00 | 0.62 | 0.46 | 83 | 1010.7 |
| 20260506182038 | 51 | 0 | 0.0 | 0.0 | 0.00 | 0.63 | 0.46 | 82 | 1010.5 |
| 20260506181041 | 52 | 0 | 0.0 | 0.0 | 0.00 | 0.64 | 0.46 | 81 | 1010.4 |
| 20260506180038 | 52 | 0 | 0.0 | 0.0 | 0.00 | 0.64 | 0.46 | 79 | 1010.3 |
| 20260506175038 | 52 | 0 | 0.0 | 0.0 | 0.00 | 0.65 | 0.46 | 81 | 1010.2 |
| 20260506174039 | 52 | 0 | 0.0 | 0.0 | 0.00 | 0.65 | 0.46 | 80 | 1009.9 |
| 20260506173036 | 53 | 0 | 0.0 | 0.0 | 0.00 | 0.66 | 0.46 | 78 | 1009.8 |
| 20260506172039 | 53 | 0 | 0.0 | 0.0 | 0.00 | 0.67 | 0.46 | 80 | 1009.7 |
| 20260506171040 | 53 | 0 | 0.0 | 0.0 | 0.00 | 0.67 | 0.46 | 81 | 1009.7 |
| 20260506170035 | 53 | 0 | 0.0 | 0.0 | 0.00 | 0.68 | 0.46 | 83 | 1009.6 |
| 20260506165037 | 53 | 0 | 0.0 | 0.0 | 0.00 | 0.68 | 0.46 | 83 | 1009.6 |
| 20260506164034 | 53 | 0 | 0.0 | 0.0 | 0.00 | 0.68 | 0.46 | 82 | 1009.6 |
| 20260506163039 | 53 | 0 | 0.0 | 0.0 | 0.00 | 0.68 | 0.46 | 82 | 1009.5 |
| 20260506162037 | 53 | 0 | 0.0 | 0.0 | 0.00 | 0.68 | 0.46 | 83 | 1009.5 |
| 20260506161039 | 54 | 0 | 0.0 | 0.0 | 0.00 | 0.68 | 0.46 | 79 | 1009.4 |
| 20260506160037 | 54 | 0 | 0.0 | 0.0 | 0.00 | 0.68 | 0.46 | 79 | 1009.4 |
| 20260506155036 | 54 | 0 | 0.0 | 0.0 | 0.00 | 0.68 | 0.46 | 80 | 1009.4 |
| 20260506154041 | 54 | 0 | 0.0 | 0.0 | 0.00 | 0.68 | 0.46 | 83 | 1009.3 |
| 20260506153036 | 53 | 0 | 0.0 | 0.0 | 0.00 | 0.68 | 0.46 | 84 | 1009.3 |
| 20260506151039 | 54 | 0 | 0.0 | 0.0 | 0.00 | 0.68 | 0.46 | 84 | 1009.2 |
| 20260506150037 | 54 | 0 | 0.0 | 0.0 | 0.00 | 0.68 | 0.46 | 84 | 1009.2 |
| 20260506145038 | 53 | 0 | 0.0 | 0.0 | 0.00 | 0.68 | 0.46 | 85 | 1009.2 |
| 20260506143035 | 52 | 0 | 0.0 | 0.0 | 0.00 | 0.68 | 0.46 | 88 | 1009.4 |
| 20260506142037 | 52 | 0 | 0.0 | 0.0 | 0.00 | 0.68 | 0.46 | 90 | 1009.4 |
| 20260506141038 | 52 | 0 | 0.0 | 0.0 | 0.00 | 0.68 | 0.46 | 89 | 1009.4 |
| 20260506140040 | 52 | 0 | 0.0 | 0.0 | 0.00 | 0.68 | 0.46 | 90 | 1009.4 |
| 20260506135039 | 52 | 0 | 0.0 | 0.0 | 0.00 | 0.68 | 0.46 | 93 | 1009.4 |
| 20260506134038 | 51 | 0 | 0.0 | 0.0 | 0.00 | 0.68 | 0.46 | 92 | 1009.5 |
| 20260506132039 | 51 | 0 | 0.0 | 0.0 | 0.00 | 0.68 | 0.46 | 91 | 1009.5 |
| 20260506131036 | 51 | 0 | 0.0 | 0.0 | 0.00 | 0.68 | 0.46 | 89 | 1009.4 |
| 20260506130037 | 51 | 0 | 0.0 | 0.0 | 0.00 | 0.68 | 0.46 | 89 | 1009.3 |
| 20260506124037 | 51 | 0 | 0.0 | 0.0 | 0.00 | 0.68 | 0.46 | 90 | 1009.3 |
| 20260506123037 | 51 | 0 | 0.0 | 0.0 | 0.00 | 0.68 | 0.46 | 88 | 1009.1 |
| 20260506122037 | 52 | 0 | 0.0 | 0.0 | 0.00 | 0.68 | 0.46 | 90 | 1009.1 |
| 20260506121035 | 52 | 0 | 0.0 | 0.0 | 0.00 | 0.68 | 0.46 | 92 | 1009.0 |
| 20260506120036 | 51 | 0 | 0.0 | 0.0 | 0.00 | 0.68 | 0.46 | 94 | 1009.1 |
| 20260506115036 | 50 | 0 | 0.0 | 0.0 | 0.00 | 0.68 | 0.46 | 94 | 1009.1 |
| 20260506114037 | 50 | 0 | 0.0 | 0.0 | 0.00 | 0.68 | 0.46 | 93 | 1009.1 |
| 20260506113038 | 51 | 0 | 0.0 | 0.0 | 0.00 | 0.68 | 0.46 | 94 | 1009.0 |
| 20260506111037 | 50 | 0 | 0.0 | 0.0 | 0.00 | 0.68 | 0.46 | 10 | 1009.2 |
| 20260506105037 | 49 | 0 | 0.0 | 0.0 | 0.00 | 0.68 | 0.46 | 10 | 1009.2 |
| 20260506104025 | 48 | 0 | 0.0 | 0.0 | 0.01 | 0.68 | 0.46 | 10 | 1009.2 |
| 20260506103037 | 48 | 0 | 0.0 | 0.0 | 0.01 | 0.68 | 0.46 | 10 | 1009.2 |
| 20260506102037 | 48 | 0 | 0.0 | 0.0 | 0.01 | 0.68 | 0.46 | 10 | 1009.2 |
| 20260506101036 | 47 | 0 | 0.0 | 0.0 | 0.02 | 0.69 | 0.46 | 10 | 1009.1 |
| 20260506100036 | 47 | 0 | 0.0 | 0.0 | 0.02 | 0.69 | 0.46 | 10 | 1008.9 |
| 20260506094034 | 47 | 0 | 0.0 | 0.0 | 0.04 | 0.69 | 0.46 | 10 | 1008.9 |
| 20260506093038 | 47 | 0 | 0.0 | 0.0 | 0.05 | 0.69 | 0.45 | 10 | 1008.7 |
| 20260506092034 | 47 | 0 | 0.0 | 0.0 | 0.06 | 0.69 | 0.45 | 10 | 1008.6 |
| 20260506090038 | 47 | 0 | 0.0 | 0.0 | 0.06 | 0.68 | 0.44 | 10 | 1008.6 |
| 20260506084036 | 47 | 0 | 0.0 | 0.0 | 0.05 | 0.66 | 0.43 | 10 | 1008.3 |
| 20260506081037 | 46 | 0 | 0.0 | 0.0 | 0.03 | 0.63 | 0.39 | 10 | 1008.2 |